Hourly Data Report for September 19, 2017

All times are specified in Local Standard Time (LST). Add 1 hour to adjust for Daylight Saving Time where and when it is observed.

SATURNA ISLAND CS
BRITISH COLUMBIA

48°47'02.067" N
123°02'41.082" W
24.40 m
1017101
71473
WEZ

Download Data

Hourly Data (September 2017)
Hourly Data Report for September 19, 2017
Temp Definition
°C
Dew Point Temp Definition
°C
Rel Hum Definition
%
Wind Dir Definition
10's deg

Wind Spd Definition
km/h
Visibility Definition
km
Stn Press Definition
kPa
Hmdx Definition


Wind Chill Definition


Weather Definition


TIME
00:00 11.3 9.0 86 15 26   100.12     LegendNANA
01:00 11.1 9.4 89 15 13   100.13     LegendNANA
02:00 11.1 9.3 89 15 11   100.14     LegendNANA
03:00 10.7 9.0 89 13 17   100.15     LegendNANA
04:00 10.6 9.0 90 14 14   100.18     LegendNANA
05:00 10.5 9.0 90 10 13   100.21     LegendNANA
06:00 10.5 9.1 91 8 13   100.26     LegendNANA
07:00 10.3 9.1 92 16 13   100.29     LegendNANA
08:00 10.7 9.5 92 16 2   100.34     LegendNANA
09:00 12.3 11.0 92 22 9   100.37     LegendNANA
10:00 12.6 9.9 84 21 7   100.40     LegendNANA
11:00 14.5 10.5 77 21 8   100.44     LegendNANA
12:00 13.2 9.5 78 19 4   100.44     LegendNANA
13:00 15.0 9.6 70 21 1   100.41     LegendNANA
14:00 14.5 9.2 70 16 2   100.41     LegendNANA
15:00 13.2 9.1 76 17 2   100.40     LegendNANA
16:00 12.0 9.3 83 17 3   100.39     LegendNANA
17:00 12.1 9.5 84 22 9   100.36     LegendNANA
18:00 11.4 9.0 85 24 5   100.35     LegendNANA
19:00 11.1 8.9 86 28 3   100.34     LegendNANA
20:00 10.8 8.9 88 20 6   100.33     LegendNANA
21:00 10.7 9.0 89 21 9   100.29     LegendNANA
22:00 10.1 8.5 90 20 10   100.25     LegendNANA
23:00 10.2 8.7 91 23 5   100.24     LegendNANA

Notes on Data Quality.

Legend

  • E = Estimated
  • M = Missing
  • NA = Not Available
  • ‡ = Partner data that is not subject to review by the National Climate Archives
Date modified: